[[{"header":{"parameterUnit":"m.s-1","parameterCategory":1,"la1":30.2991,"la2":30.254,"lo1":-89.0895,"lo2":-89.0444,"dy":0.0017,"dx":0.0017,"nx":28,"ny":28,"refTime":"2023-09-20T21:00:00:Z","depth":0,"parameterNumber":2,"parameterNumberName":"U-component_of_WINDS"},"data":[0,0,0,0,0,0,0,0,0,0,0,0,0,0,0,0,0,0,0,0,0,0,0,0,0,0,0,0,0,0,0,0,0,0,0,0,0,0,0,0,0,0,0,0,0,0,0,0,0,0,0,0,0,0,0,0,0,0,-6.8621,-6.8621,0,-6.8603,-6.8603,-6.8603,-6.8416,-6.8412,-6.8407,-6.8402,-6.8385,-6.8389,-6.8393,0,0,0,0,0,0,0,0,0,0,0,0,0,-6.8496,-6.8499,-6.8621,-6.8621,-6.8621,-6.8603,-6.8603,-6.8603,-6.8417,-6.8411,-6.8406,-6.84,-6.8384,-6.8389,-6.8393,0,0,0,0,0,0,0,0,0,0,0,0,0,-6.8521,-6.85,-6.8621,-6.8526,-6.8517,-6.8603,-6.8603,-6.8603,-6.8418,-6.8411,-6.8404,-6.8398,-6.8382,-6.8388,-6.8394,-6.8571,0,0,-6.8412,-6.8414,0,0,0,0,0,0,0,0,-6.852,-6.8526,-6.854,-6.8532,-6.8523,-6.8505,-6.8552,-6.8592,-6.842,-6.8456,-6.8402,-6.8394,-6.8431,-6.8432,-6.8444,-6.857,-6.8569,-6.8412,-6.8416,-6.8418,-6.842,0,0,0,0,0,0,0,-6.8519,-6.8526,-6.8614,-6.854,-6.853,-6.8484,-6.848,-6.8559,-6.8483,-6.8452,-6.8439,-6.8439,-6.8425,-6.8439,-6.8442,-6.8569,-6.8412,-6.8417,-6.8421,-6.8423,-6.884,-6.8847,0,0,0,0,0,0,-6.853,-6.8526,-6.8614,-6.8613,-6.8504,-6.8493,-6.8488,-6.8518,-6.8481,-6.8469,-6.8445,-6.843,-6.8433,-6.8436,-6.8441,-6.8646,-6.8418,-6.8424,-6.8427,-6.8833,-6.8842,-6.885,0,0,0,0,0,0,-6.8528,-6.854,-6.8615,-6.8566,-6.8572,-6.8502,-6.8537,-6.8521,-6.8535,-6.8476,-6.8462,-6.8474,-6.8427,-6.8433,-6.854,-6.8643,-6.8426,-6.8432,-6.8824,-6.8835,-6.8846,-6.9058,0,0,0,0,0,0,-6.8525,-6.854,-6.8606,-6.8569,-6.8575,-6.8714,-6.8543,-6.8526,-6.8546,-6.8526,-6.8499,-6.8488,-6.8422,-6.8532,-6.8546,-6.8647,-6.8436,-6.8814,-6.8829,-6.8842,-6.9042,-6.9075,-6.9104,0,0,0,0,0,-6.8521,-6.8666,-6.861,-6.8622,-6.8656,-6.8721,-6.8724,-6.8645,-6.8555,-6.8621,-6.8583,-6.8489,-6.863,-6.8545,-6.8559,-6.8663,-6.8807,-6.8825,-6.8841,-6.9028,-6.9069,-6.9104,0,0,0,0,0,0,-6.8716,-6.8659,-6.8596,-6.8733,-6.8734,-6.8689,-6.8769,-6.8691,-6.8717,-6.8698,-6.8599,-6.8595,-6.8718,-6.8701,-6.8607,-6.8833,-6.8702,-6.8723,-6.884,-6.8878,-6.8909,-6.891,-6.8441,0,0,0,0,0,-6.8775,-6.8832,-6.8779,-6.8905,-6.8909,-6.884,-6.8865,-6.8805,-6.88,-6.8799,-6.8769,-6.877,-6.8814,-6.8845,-6.8882,-6.9039,-6.9031,-6.9118,-6.9149,-6.9175,-6.9194,-6.9277,-6.9315,-6.8906,-6.8906,-6.8905,0,0,-6.8897,-6.8873,-6.8915,-6.8944,-6.8937,-6.8999,-6.8841,-6.8912,-6.8957,-6.881,-6.8909,-6.8889,-6.8882,-6.9015,-6.9072,-6.9005,-6.9306,-6.9197,-6.9218,-6.9223,-6.9299,-6.9337,-6.9372,-6.8917,-6.8915,-6.8913,0,0,-6.9152,-6.9139,-6.9243,-6.924,-6.9231,-6.9185,-6.9211,-6.9179,-6.9159,-6.9257,-6.9149,-6.9202,-6.928,-6.928,-6.9291,-6.9549,-6.9464,-6.9564,-6.9728,-6.981,-6.9842,-6.987,-6.9963,-6.9997,-6.9583,-6.9584,-6.9584,0,-6.9304,-6.9392,-6.9307,-6.9386,-6.9402,-6.9273,-6.9379,-6.9379,-6.9384,-6.9399,-6.9324,-6.9421,-6.9407,-6.9539,-6.9603,-6.9616,-6.9642,-6.9566,-6.9844,-6.9872,-6.9897,-6.9984,-7.0019,-6.9596,-6.9595,-6.9594,-6.9592,0,-6.9581,-6.9645,-6.973,-6.9738,-6.9765,-6.9857,-6.9786,-6.9823,-6.9762,-6.9724,-6.9827,-6.9807,-6.9839,-6.9866,-6.9806,-6.9991,-6.9949,-6.9862,-6.9727,-6.9949,-7.003,-7.0063,-6.9614,-6.9609,-6.9606,-6.9603,0,0,-6.9955,-6.9917,-6.995,-6.9953,-6.9935,-6.9983,-7.0071,-7.0102,-7.0136,-7.0145,-7.0216,-7.0287,-7.0206,-7.0218,-7.0158,-7.023,-7.0438,-7.0132,-7.0131,-7.019,-7.0641,-7.0708,-7.0748,-7.0381,-7.0387,-7.0392,-7.0642,0,-7.02,-7.0346,-7.0273,-7.0429,-7.0487,-7.0367,-7.0443,-7.0442,-7.041,-7.0455,-7.0419,-7.0471,-7.036,-7.0367,-7.0433,-7.0398,-7.0527,-7.0379,-7.0447,-7.0451,-7.0452,-7.0789,-7.0859,-7.1095,-7.0673,-7.0678,-7.0682,0,-7.0504,-7.0527,-7.0689,-7.0663,-7.0685,-7.0755,-7.0779,-7.0823,-7.082,-7.0792,-7.0808,-7.0731,-7.0816,-7.0685,-7.0802,-7.0703,-7.0727,-7.0715,-7.0722,-7.0725,-7.0579,-7.0801,-7.1169,-7.1204,-7.073,-7.0726,-7.0723,0,-7.0761,-7.0832,-7.0938,-7.0945,-7.0917,-7.0969,-7.096,-7.095,-7.0975,-7.0996,-7.1011,-7.1043,-7.1061,-7.1088,-7.1022,-7.0933,-7.1149,-7.1011,-7.1128,-7.113,-7.1178,-7.1176,-7.1554,-7.1195,-7.1194,-7.1194,-7.1193,0,-7.1042,-7.1146,-7.1054,-7.1119,-7.1233,-7.1149,-7.1264,-7.1242,-7.1234,-7.1294,-7.1193,-7.1251,-7.1161,-7.1212,-7.1161,-7.1266,-7.1275,-7.1255,-7.124,-7.1264,-7.1267,-7.1277,-7.1259,-7.1203,-7.1201,-7.1199,-7.1198,0,-7.1347,-7.1289,-7.1398,-7.1364,-7.1358,-7.1443,-7.1414,-7.1474,-7.1436,-7.1513,-7.1527,-7.1468,-7.1522,-7.146,-7.1509,-7.1475,-7.1617,-7.1578,-7.1619,-7.1607,-7.1728,-7.1717,-7.2126,-7.2176,-7.1785,-7.1789,-7.1792,0,-7.1529,-7.1607,-7.1582,-7.1615,-7.1612,-7.1667,-7.1692,-7.1613,-7.1643,-7.1647,-7.1707,-7.1753,-7.1785,-7.1877,-7.1839,-7.1877,-7.1838,-7.1979,-7.1843,-7.1865,-7.184,-7.1837,-7.1844,-7.2006,-7.2011,-7.2015,-7.2018,0,-7.186,-7.1828,-7.1868,-7.19,-7.1932,-7.1953,-7.1966,-7.1999,-7.1917,-7.1957,-7.2011,-7.2037,-7.2088,-7.2135,-7.2162,-7.2153,-7.2074,-7.2062,-7.209,-7.2115,-7.2135,-7.2126,-7.1694,-7.2052,-7.2049,-7.2046,-7.2044,-7.2043,-7.2108,-7.2172,-7.2165,-7.2214,-7.2216,-7.2231,-7.2286,-7.2257,-7.23,-7.2336,-7.2287,-7.2355,-7.2352,-7.2381,-7.2382,-7.2435,-7.2375,-7.2417,-7.2427,-7.2439,-7.2457,-7.2128,-7.244,-7.2439,-7.2438,-7.2437,-7.2436,0,-7.2433,-7.2424,-7.2469,-7.2491,-7.2531,-7.2453,-7.2464,-7.2502,-7.2563,-7.2567,-7.2602,-7.2666,-7.2712,-7.2679,-7.2718,-7.2767,-7.2731,-7.278,-7.2775,-7.2774,-7.2508,-7.2479,-7.2808,-7.2808,-7.2808,-7.2808,-7.2808,-7.2808,-7.2606,-7.2711,-7.268,-7.2785,-7.2774,-7.284,-7.2854,-7.2868,-7.2871,-7.2947,-7.2985,-7.2963,-7.2953,-7.2991,-7.3031,-7.302,-7.3039,-7.3101,-7.3078,-7.2829,-7.2793,-7.2758,-7.273,-7.3106,-7.3107,-7.3339,-7.3341,-7.3343]},{"header":{"parameterUnit":"m.s-1","parameterCategory":1,"la1":30.2991,"la2":30.254,"lo1":-89.0895,"lo2":-89.0444,"dy":0.0017,"dx":0.0017,"nx":28,"ny":28,"refTime":"2023-09-20T21:00:00:Z","depth":0,"parameterNumber":3,"parameterNumberName":"V-component_of_WINDS"},"data":[0,0,0,0,0,0,0,0,0,0,0,0,0,0,0,0,0,0,0,0,0,0,0,0,0,0,0,0,0,0,0,0,0,0,0,0,0,0,0,0,0,0,0,0,0,0,0,0,0,0,0,0,0,0,0,0,0,0,-0.0214,-0.0215,0,-0.0325,-0.0327,-0.0328,-0.03,-0.0298,-0.0295,-0.0293,-0.0415,-0.042,-0.0425,0,0,0,0,0,0,0,0,0,0,0,0,0,0.0021,0.0016,-0.0214,-0.0215,-0.0216,-0.0325,-0.0327,-0.0328,-0.03,-0.0298,-0.0295,-0.0292,-0.0413,-0.0419,-0.0426,0,0,0,0,0,0,0,0,0,0,0,0,0,-0.0085,0.0015,-0.0213,-0.0215,-0.0217,-0.0325,-0.0327,-0.0329,-0.0301,-0.0297,-0.0294,-0.0291,-0.0411,-0.0419,-0.0427,-0.0542,0,0,-0.0451,-0.0454,0,0,0,0,0,0,0,0,-0.0079,-0.0094,-0.0214,-0.0215,-0.0217,-0.0295,-0.0289,-0.04,-0.0302,-0.0269,-0.0293,-0.0289,-0.0378,-0.0389,-0.0417,-0.0548,-0.0553,-0.0452,-0.0456,-0.046,-0.0462,0,0,0,0,0,0,0,-0.0072,-0.0089,-0.0258,-0.0215,-0.0217,-0.0212,-0.0223,-0.031,-0.0341,-0.0272,-0.027,-0.0283,-0.0378,-0.0409,-0.042,-0.0555,-0.0451,-0.0458,-0.0463,-0.0466,-0.0784,-0.0788,0,0,0,0,0,0,-0.0063,-0.0083,-0.0254,-0.0261,-0.0138,-0.0219,-0.0231,-0.0274,-0.034,-0.0347,-0.0286,-0.0281,-0.0398,-0.041,-0.0424,-0.0563,-0.046,-0.0467,-0.0472,-0.078,-0.0785,-0.0789,0,0,0,0,0,0,-0.0058,-0.0078,-0.025,-0.0172,-0.0193,-0.0226,-0.0274,-0.0277,-0.0308,-0.0351,-0.0357,-0.0312,-0.0395,-0.0413,-0.0512,-0.0567,-0.0471,-0.0478,-0.0776,-0.0782,-0.0787,-0.0843,0,0,0,0,0,0,-0.0051,-0.0077,-0.012,-0.0173,-0.0197,-0.0335,-0.0277,-0.0282,-0.0321,-0.0317,-0.0376,-0.0383,-0.0394,-0.05,-0.052,-0.0576,-0.0484,-0.0771,-0.0779,-0.0785,-0.0837,-0.085,-0.0861,0,0,0,0,0,-0.0043,-0.0134,-0.0123,-0.0144,-0.0252,-0.0339,-0.0353,-0.0362,-0.0326,-0.0371,-0.0397,-0.0381,-0.0557,-0.0511,-0.0533,-0.0592,-0.0768,-0.0777,-0.0785,-0.0831,-0.0847,-0.0861,0,0,0,0,0,0,-0.009,-0.0141,-0.0129,-0.0239,-0.0284,-0.0334,-0.0391,-0.0379,-0.0437,-0.0431,-0.0441,-0.0455,-0.0556,-0.0583,-0.0531,-0.0707,-0.0658,-0.0671,-0.0686,-0.0701,-0.0713,-0.0706,-0.0491,0,0,0,0,0,-0.0112,-0.0177,-0.0218,-0.0311,-0.0334,-0.0358,-0.0396,-0.0398,-0.0447,-0.0467,-0.05,-0.055,-0.0615,-0.0659,-0.0723,-0.0839,-0.0852,-0.0891,-0.0903,-0.0913,-0.0925,-0.0989,-0.1006,-0.0816,-0.0816,-0.0816,0,0,-0.0161,-0.0197,-0.0237,-0.0321,-0.0357,-0.0424,-0.0375,-0.0449,-0.0499,-0.0479,-0.0574,-0.06,-0.0655,-0.0763,-0.0813,-0.079,-0.098,-0.0923,-0.0931,-0.0938,-0.0999,-0.1017,-0.1033,-0.0822,-0.0821,-0.082,0,0,-0.0285,-0.0317,-0.0398,-0.0433,-0.0486,-0.0501,-0.052,-0.057,-0.0586,-0.0681,-0.0666,-0.0727,-0.084,-0.088,-0.0915,-0.1049,-0.1037,-0.1069,-0.1135,-0.1197,-0.1212,-0.1225,-0.1275,-0.1292,-0.108,-0.1081,-0.1081,0,-0.034,-0.0439,-0.0442,-0.0516,-0.0554,-0.0534,-0.0616,-0.0651,-0.0723,-0.075,-0.0721,-0.0862,-0.0898,-0.1015,-0.1047,-0.1075,-0.1099,-0.1065,-0.1209,-0.1223,-0.1235,-0.1282,-0.13,-0.1084,-0.1084,-0.1083,-0.1083,0,-0.0504,-0.0573,-0.0632,-0.0699,-0.0743,-0.0821,-0.0836,-0.088,-0.0877,-0.0895,-0.0992,-0.1033,-0.1104,-0.1131,-0.113,-0.1248,-0.1231,-0.1206,-0.1158,-0.1257,-0.1301,-0.1319,-0.109,-0.1088,-0.1087,-0.1086,0,0,-0.0666,-0.0729,-0.0751,-0.078,-0.0835,-0.0889,-0.0966,-0.1032,-0.107,-0.1119,-0.1184,-0.1279,-0.1254,-0.1294,-0.1297,-0.1351,-0.1455,-0.1319,-0.132,-0.1344,-0.1587,-0.1608,-0.1629,-0.1445,-0.1448,-0.1451,-0.1583,0,-0.0796,-0.0929,-0.0932,-0.1055,-0.1119,-0.1098,-0.1165,-0.1206,-0.1224,-0.1281,-0.1301,-0.1368,-0.1331,-0.1354,-0.1406,-0.1431,-0.1504,-0.1421,-0.1509,-0.1512,-0.1499,-0.1652,-0.1675,-0.1798,-0.1601,-0.1603,-0.1606,0,-0.0966,-0.1017,-0.1146,-0.1189,-0.1216,-0.1276,-0.1336,-0.139,-0.1436,-0.1445,-0.1487,-0.1481,-0.156,-0.1506,-0.1615,-0.1559,-0.1594,-0.1611,-0.1616,-0.1628,-0.1567,-0.167,-0.1838,-0.1857,-0.1633,-0.163,-0.1629,0,-0.1073,-0.1174,-0.1263,-0.1289,-0.1341,-0.1384,-0.1408,-0.145,-0.1489,-0.1541,-0.1567,-0.1628,-0.1663,-0.1711,-0.1722,-0.1681,-0.1832,-0.1779,-0.1844,-0.1844,-0.1881,-0.1879,-0.2059,-0.1898,-0.1898,-0.1897,-0.1897,0,-0.122,-0.13,-0.1312,-0.1368,-0.1456,-0.1458,-0.1546,-0.1567,-0.1604,-0.1664,-0.1649,-0.1707,-0.1716,-0.1775,-0.1784,-0.1874,-0.189,-0.19,-0.1903,-0.1904,-0.1903,-0.193,-0.1923,-0.1902,-0.1901,-0.19,-0.1899,0,-0.1356,-0.1367,-0.1464,-0.1503,-0.1515,-0.1579,-0.1614,-0.1667,-0.1681,-0.1757,-0.1775,-0.1798,-0.1867,-0.1881,-0.1964,-0.1969,-0.2077,-0.2069,-0.2061,-0.2061,-0.2127,-0.2121,-0.2333,-0.2362,-0.218,-0.2181,-0.2183,0,-0.1451,-0.1511,-0.1556,-0.1594,-0.1619,-0.1681,-0.1719,-0.1722,-0.1763,-0.1817,-0.1865,-0.1931,-0.1985,-0.2096,-0.2121,-0.2183,-0.2179,-0.2248,-0.2189,-0.2187,-0.2183,-0.218,-0.2187,-0.2261,-0.2263,-0.2265,-0.2266,0,-0.1618,-0.1619,-0.1674,-0.173,-0.1776,-0.1821,-0.1864,-0.1896,-0.1905,-0.1951,-0.202,-0.2061,-0.2143,-0.221,-0.2271,-0.2297,-0.2285,-0.2284,-0.2303,-0.2306,-0.23,-0.2306,-0.2095,-0.228,-0.2279,-0.2278,-0.2277,-0.2277,-0.1738,-0.179,-0.1829,-0.189,-0.1922,-0.1961,-0.2013,-0.2032,-0.2088,-0.2154,-0.2151,-0.2227,-0.2269,-0.235,-0.238,-0.2439,-0.2418,-0.2445,-0.2452,-0.246,-0.2466,-0.2287,-0.245,-0.245,-0.245,-0.2449,-0.2449,0,-0.1905,-0.1928,-0.1984,-0.2043,-0.2091,-0.2069,-0.2115,-0.2158,-0.2223,-0.2262,-0.2314,-0.2392,-0.2456,-0.2484,-0.2547,-0.2589,-0.2585,-0.2606,-0.2605,-0.2611,-0.2481,-0.246,-0.2609,-0.2609,-0.2609,-0.2609,-0.2609,-0.2609,-0.1999,-0.2086,-0.2091,-0.2194,-0.2217,-0.2289,-0.2317,-0.2353,-0.2384,-0.2472,-0.2523,-0.2539,-0.2575,-0.2639,-0.2697,-0.2703,-0.2729,-0.2753,-0.2758,-0.2637,-0.2621,-0.2605,-0.2585,-0.2758,-0.2758,-0.2883,-0.2884,-0.2885]}]]